Weather in Nepotyagovo

Russia / Vologda Oblast     59°08′43″N   39°48′54″E
temp.,
°C
wind,
m/s
gust,
m/s
humid.,
%
clouds,
%
prec.,
mm/h
press.,
hPa
HPBL,
m
6 march, sat
sat600:00−14nw339692 0.1 101228
03:00−17wnw349546 0.1 101345
06:00−16wnw349788 0.0 101382
09:00−15wnw359682 0.1 1014177
12:00−11w238546 0.0 1014393
15:00−8w358472 0.0 1012673
18:00−12sw349499 0.0 101060
21:00−14ssw489671 0.0 1008144
7 march, sun
sun700:00−12ssw5119226 0.0 1004254
03:00−10s6148763 0.0 1000480
06:00−9s71490100 0.1 995681
09:00−8s71391100 0.4 991748
12:00−6sse71290100 0.2 988702
15:00−5se71194100 0.7 987698
18:00−6ese61195100 1.2 987553
21:00−7e4896100 3.0 988420
8 march, mon
mon800:00−8ne5995100 1.1 989412
03:00−9ne51094100 1.8 991553
06:00−11nne61193100 0.6 993577
09:00−12nne61091100 0.9 997632
12:00−11n71089100 0.1 1000716
15:00−10n71086100 0.2 1003788
18:00−13n51090100 0.1 1006655
21:00−17nnw41095100 0.1 1009312
9 march, tue
tue900:00−21nnw4898100 0.0 1011178
03:00−24nnw479888 0.0 1013121
06:00−27nnw36978 0.0 1015118
09:00−25nnw47956 0.0 1017264
12:00−22nnw469268 0.0 1018393
15:00−19nnw578881 0.0 1019552
18:00−22nnw479494 0.0 1019136
21:00−25nnw349754 0.0 102262
10 march, wed
wed1000:00−27nnw33970 0.0 102334
03:00−28nnw23970 0.0 102420
06:00−29nnw23960 0.0 102519
09:00−25nw23960 0.0 1025113
12:00−18wnw348760 0.0 1025353
15:00−14wnw478668 0.0 1024484
18:00−17wnw369395 0.0 1024103
21:00−18wnw369688 0.0 102491